QPF
0.00 0.00 0.00 0.00 0.00 0.00 0.00 0.00 0.00 0.00 0.00 0.04 0.07 0.06 0.04 0.00 0.00 0.00 0.00 0.00 0.00 0.00 0.00 0.00 0.00 0.00 0.00 0.00 0.00 0.00 0.00 0.00 0.00 0.00 0.00 0.00 0.00 0.01 0.14 0.08 0.15 0.11 0.03 0.00
0.00 0.00 0.00 0.00 0.00 0.00 0.00 0.00 0.00 0.00 0.00 0.01 0.02 0.02 0.03 0.00 0.00 0.00 0.00 0.00 0.00 0.00 0.00 0.00 0.00 0.00 0.00 0.00 0.00 0.00 0.00 0.00 0.00 0.00 0.00 0.00 0.00 0.01 0.13 0.04 0.02 0.02 0.03 0.03
0.00 0.00 0.00 0.00 0.00 0.00 0.00 0.00 0.00 0.01 0.00 0.00 0.01 0.03 0.02 0.00 0.00 0.00 0.00 0.00 0.00 0.00 0.00 0.00 0.00 0.00 0.00 0.00 0.00 0.00 0.00 0.00 0.00 0.00 0.00 0.00 0.00 0.00 0.05 0.07 0.01 0.08 0.18 0.21
0.00 0.00 0.00 0.00 0.00 0.00 0.00 0.00 0.00 0.01 0.00 0.01 0.01 0.01 0.00 0.00 0.00 0.00 0.00 0.00 0.00 0.00 0.00 0.00 0.00 0.00 0.00 0.00 0.00 0.00 0.00 0.00 0.00 0.00 0.00 0.00 0.00 0.00 0.03 0.05 0.04 0.11 0.18 0.29
0.00 0.00 0.00 0.00 0.00 0.00 0.00 0.00 0.00 0.00 0.00 0.01 0.02 0.01 0.00 0.00 0.00 0.00 0.00 0.00 0.00 0.00 0.01 0.00 0.00 0.00 0.00 0.00 0.00 0.00 0.00 0.00 0.00 0.00 0.00 0.00 0.00 0.00 0.01 0.06 0.04 0.02 0.07 0.11
0.00 0.00 0.00 0.00 0.00 0.00 0.00 0.00 0.00 0.00 0.02 0.00 0.01 0.01 0.00 0.00 0.00 0.00 0.00 0.00 0.00 0.01 0.01 0.00 0.00 0.00 0.00 0.00 0.00 0.00 0.00 0.00 0.00 0.00 0.00 0.00 0.00 0.00 0.02 0.02 0.03 0.01 0.02 0.12
0.00 0.00 0.00 0.00 0.00 0.00 0.00 0.00 0.00 0.00 0.01 0.00 0.00 0.01 0.01 0.00 0.00 0.00 0.00 0.00 0.00 0.00 0.00 0.00 0.00 0.00 0.00 0.00 0.00 0.00 0.00 0.00 0.00 0.00 0.00 0.00 0.00 0.00 0.01 0.00 0.03 0.04 0.00 0.00
0.00 0.00 0.00 0.00 0.00 0.00 0.00 0.00 0.00 0.00 0.00 0.00 0.00 0.00 0.00 0.00 0.00 0.00 0.00 0.00 0.00 0.00 0.00 0.00 0.00 0.00 0.00 0.00 0.00 0.00 0.00 0.00 0.00 0.00 0.00 0.00 0.00 0.00 0.00 0.00 0.00 0.00 0.00 0.00
0.00 0.00 0.00 0.00 0.00 0.00 0.00 0.00 0.00 0.00 0.00 0.00 0.00 0.00 0.00 0.00 0.00 0.00 0.00 0.00 0.00 0.00 0.00 0.00 0.00 0.00 0.00 0.00 0.00 0.00 0.00 0.00 0.00 0.00 0.00 0.00 0.00 0.00 0.00 0.00 0.00 0.00 0.02 0.00
0.00 0.00 0.00 0.00 0.00 0.00 0.00 0.00 0.00 0.00 0.00 0.00 0.00 0.00 0.00 0.00 0.00 0.00 0.00 0.00 0.00 0.00 0.00 0.00 0.00 0.00 0.00 0.00 0.00 0.00 0.00 0.00 0.00 0.00 0.00 0.00 0.00 0.00 0.00 0.00 0.00 0.01 0.01 0.00
0.00 0.00 0.00 0.00 0.00 0.00 0.00 0.00 0.00 0.00 0.00 0.00 0.00 0.00 0.00 0.00 0.00 0.00 0.00 0.00 0.00 0.00 0.00 0.00 0.00 0.00 0.00 0.00 0.00 0.00 0.00 0.00 0.00 0.00 0.00 0.00 0.00 0.00 0.00 0.00 0.02 0.02 0.00 0.00
0.00 0.00 0.00 0.00 0.00 0.00 0.00 0.00 0.00 0.00 0.00 0.00 0.00 0.00 0.00 0.00 0.00 0.00 0.00 0.00 0.00 0.00 0.00 0.00 0.00 0.00 0.00 0.00 0.00 0.00 0.00 0.00 0.00 0.00 0.00 0.00 0.00 0.00 0.00 0.00 0.00 0.03 0.00 0.00
0.00 0.00 0.00 0.00 0.00 0.00 0.00 0.00 0.00 0.00 0.00 0.00 0.00 0.00 0.00 0.00 0.00 0.00 0.00 0.00 0.00 0.00 0.00 0.00 0.00 0.00 0.00 0.00 0.00 0.00 0.00 0.00 0.00 0.00 0.00 0.00 0.00 0.00 0.00 0.00 0.01 0.02 0.00 0.00
0.00 0.00 0.00 0.00 0.00 0.00 0.00 0.00 0.00 0.00 0.00 0.00 0.00 0.00 0.00 0.00 0.00 0.00 0.00 0.00 0.00 0.00 0.00 0.00 0.00 0.00 0.00 0.00 0.00 0.00 0.00 0.00 0.00 0.00 0.00 0.00 0.00 0.00 0.00 0.00 0.00 0.03 0.02 0.00
0.00 0.00 0.00 0.00 0.00 0.00 0.00 0.00 0.00 0.00 0.00 0.00 0.00 0.00 0.00 0.00 0.00 0.00 0.00 0.00 0.00 0.00 0.00 0.00 0.00 0.00 0.00 0.00 0.00 0.00 0.00 0.00 0.00 0.00 0.00 0.00 0.00 0.00 0.00 0.00 0.00 0.02 0.03 0.02
0.00 0.00 0.00 0.00 0.00 0.00 0.00 0.00 0.00 0.00 0.00 0.00 0.00 0.00 0.00 0.00 0.00 0.00 0.00 0.00 0.00 0.00 0.00 0.00 0.00 0.00 0.00 0.00 0.00 0.00 0.00 0.00 0.00 0.00 0.00 0.00 0.00 0.00 0.00 0.00 0.00 0.00 0.01 0.01
0.00 0.00 0.00 0.00 0.00 0.00 0.00 0.00 0.00 0.00 0.00 0.00 0.00 0.00 0.00 0.00 0.00 0.00 0.00 0.00 0.00 0.00 0.00 0.00 0.00 0.00 0.00 0.00 0.00 0.00 0.00 0.00 0.00 0.00 0.00 0.00 0.00 0.00 0.00 0.00 0.00 0.00 0.00 0.00
0.00 0.00 0.00 0.00 0.00 0.00 0.00 0.00 0.00 0.00 0.00 0.00 0.00 0.00 0.00 0.00 0.00 0.00 0.00 0.00 0.00 0.00 0.00 0.00 0.00 0.00 0.00 0.00 0.00 0.00 0.00 0.00 0.00 0.00 0.00 0.00 0.00 0.00 0.00 0.00 0.00 0.00 0.00 0.00
0.00 0.00 0.00 0.00 0.00 0.00 0.00 0.00 0.00 0.00 0.00 0.00 0.00 0.00 0.00 0.00 0.00 0.00 0.00 0.00 0.00 0.00 0.00 0.00 0.00 0.00 0.00 0.00 0.00 0.00 0.00 0.00 0.00 0.00 0.00 0.00 0.00 0.00 0.00 0.00 0.00 0.00 0.00 0.00
0.00 0.02 0.01 0.00 0.00 0.00 0.00 0.00 0.00 0.00 0.00 0.00 0.00 0.00 0.00 0.00 0.00 0.00 0.00 0.00 0.00 0.00 0.00 0.00 0.00 0.00 0.00 0.00 0.00 0.00 0.00 0.00 0.00 0.00 0.00 0.00 0.00 0.00 0.00 0.00 0.00 0.00 0.00 0.01
0.00 0.00 0.02 0.02 0.00 0.00 0.00 0.00 0.00 0.00 0.00 0.00 0.00 0.00 0.00 0.00 0.00 0.00 0.00 0.00 0.00 0.00 0.00 0.00 0.00 0.00 0.00 0.00 0.00 0.00 0.00 0.00 0.00 0.00 0.00 0.00 0.00 0.00 0.00 0.00 0.00 0.00 0.00 0.00
0.00 0.00 0.00 0.00 0.00 0.00 0.00 0.00 0.00 0.00 0.00 0.00 0.00 0.00 0.00 0.00 0.00 0.00 0.00 0.00 0.00 0.00 0.00 0.00 0.00 0.00 0.00 0.00 0.00 0.00 0.00 0.00 0.00 0.00 0.00 0.00 0.00 0.00 0.00 0.00 0.00 0.00 0.00 0.00
0.00 0.00 0.00 0.00 0.00 0.01 0.00 0.00 0.00 0.00 0.00 0.00 0.00 0.00 0.00 0.00 0.00 0.00 0.00 0.00 0.00 0.00 0.00 0.00 0.00 0.00 0.00 0.00 0.00 0.00 0.00 0.00 0.00 0.00 0.00 0.00 0.00 0.00 0.00 0.00 0.00 0.00 0.00 0.00
0.02 0.01 0.00 0.00 0.00 0.00 0.00 0.00 0.00 0.00 0.00 0.00 0.00 0.00 0.00 0.00 0.00 0.00 0.00 0.00 0.00 0.00 0.00 0.00 0.00 0.00 0.00 0.00 0.00 0.00 0.00 0.00 0.00 0.00 0.00 0.00 0.00 0.00 0.00 0.00 0.00 0.00 0.00 0.00
0.01 0.01 0.01 0.01 0.00 0.00 0.00 0.00 0.00 0.00 0.00 0.00 0.00 0.00 0.00 0.00 0.00 0.00 0.00 0.00 0.00 0.00 0.00 0.00 0.00 0.00 0.00 0.00 0.00 0.00 0.00 0.00 0.00 0.00 0.00 0.00 0.00 0.00 0.00 0.00 0.00 0.00 0.00 0.00
0.00 0.00 0.02 0.02 0.00 0.01 0.01 0.00 0.03 0.03 0.01 0.00 0.00 0.00 0.00 0.00 0.00 0.00 0.00 0.00 0.00 0.00 0.00 0.00 0.00 0.00 0.00 0.00 0.00 0.00 0.00 0.00 0.00 0.00 0.00 0.00 0.00 0.00 0.00 0.00 0.00 0.00 0.00 0.00
MSLP
1003.07 1003.88 1004.38 1004.74 1004.75 1004.82 1005.53 1006.40 1007.26 1007.75 1008.72 1009.37 1009.73 1009.21 1009.07 1009.14 1009.70 1008.61 1008.49 1008.82 1008.89 1008.82 1008.98 1009.65 1010.35 1011.08 1012.00 1012.71 1013.19 1013.55 1014.16 1014.56 1015.05 1015.51 1015.94 1016.09 1016.18 1016.34 1016.51 1016.41 1016.69 1016.65 1016.99 1017.12
1003.92 1003.68 1003.64 1004.07 1004.24 1004.79 1005.47 1006.30 1007.25 1007.77 1009.31 1009.63 1009.81 1009.10 1008.21 1008.83 1009.36 1008.63 1008.63 1008.29 1008.21 1008.43 1008.72 1009.05 1009.61 1010.52 1011.56 1012.08 1012.62 1013.36 1013.67 1014.29 1014.74 1015.11 1015.37 1015.63 1015.90 1016.35 1016.67 1016.43 1016.00 1016.39 1016.72 1016.84
1003.56 1002.35 1003.18 1003.61 1003.72 1004.72 1004.85 1005.43 1006.91 1007.99 1009.22 1010.13 1010.76 1010.32 1009.15 1008.20 1009.16 1009.24 1008.41 1007.93 1007.68 1007.67 1008.25 1008.83 1009.33 1009.98 1010.90 1011.65 1012.14 1012.66 1013.18 1013.72 1014.22 1014.62 1015.25 1015.85 1016.00 1016.47 1016.83 1016.74 1016.75 1016.87 1016.86 1017.01
1003.31 1002.15 1002.86 1003.06 1003.45 1004.02 1004.88 1005.17 1006.51 1007.55 1008.92 1010.26 1010.55 1011.13 1009.69 1008.93 1008.70 1008.27 1007.69 1007.35 1007.16 1006.95 1007.38 1007.90 1008.73 1009.54 1010.23 1010.79 1011.38 1012.14 1012.78 1013.27 1013.70 1014.19 1014.79 1015.44 1015.71 1016.31 1016.64 1016.66 1016.68 1016.88 1017.15 1017.06
1002.50 1002.17 1002.38 1002.82 1002.45 1003.37 1003.37 1004.31 1005.55 1006.60 1007.64 1009.86 1010.59 1011.45 1009.40 1008.79 1008.64 1006.51 1005.95 1005.88 1005.82 1006.15 1006.59 1007.03 1007.77 1008.64 1009.45 1010.18 1010.84 1011.56 1012.21 1012.76 1013.07 1013.78 1014.26 1014.93 1015.52 1015.82 1016.25 1016.34 1016.37 1016.53 1017.10 1017.20
1002.56 1001.51 1001.79 1001.34 1001.47 1001.93 1002.02 1004.34 1006.50 1007.99 1009.82 1011.11 1009.48 1010.01 1009.11 1008.37 1005.67 1004.83 1004.21 1004.48 1004.78 1005.29 1006.11 1006.46 1007.15 1008.20 1008.98 1009.50 1010.23 1011.07 1011.73 1012.29 1012.76 1013.32 1014.02 1014.46 1015.30 1015.89 1016.47 1016.78 1016.79 1016.92 1016.77 1016.74
1002.68 1001.78 1001.11 1000.83 1000.93 1000.92 1001.92 1004.65 1007.65 1009.72 1010.63 1009.89 1008.33 1009.40 1006.54 1004.82 1002.92 1002.86 1003.13 1003.35 1003.53 1004.27 1005.13 1005.99 1006.76 1007.66 1008.47 1009.05 1009.61 1010.38 1011.28 1011.89 1012.39 1012.76 1013.32 1013.91 1014.82 1015.18 1015.92 1016.38 1016.35 1016.41 1016.54 1016.07
1003.26 1002.06 1000.69 1000.06 1000.23 1000.52 1001.50 1002.88 1004.72 1006.74 1008.69 1008.30 1007.30 1006.26 1003.77 1002.53 1002.16 1002.55 1002.76 1003.10 1003.21 1003.82 1004.28 1004.93 1005.61 1006.59 1007.50 1008.20 1008.90 1009.67 1010.72 1011.45 1012.00 1012.36 1012.71 1013.24 1014.09 1014.82 1015.46 1015.77 1015.97 1015.95 1015.89 1015.42
1002.82 1001.71 1000.32 999.81 999.58 1000.02 1000.61 1002.09 1002.95 1005.14 1007.17 1007.61 1006.53 1005.11 1002.95 1001.15 1001.16 1001.72 1002.34 1002.44 1002.75 1002.88 1003.06 1003.91 1004.71 1005.56 1006.57 1007.49 1008.17 1008.96 1009.97 1010.84 1011.44 1011.91 1012.32 1012.85 1013.35 1014.21 1015.00 1015.52 1015.46 1015.35 1015.41 1015.47
1001.30 1001.65 1000.08 999.36 999.31 999.33 1000.07 1000.88 1003.12 1005.26 1006.80 1007.60 1006.47 1005.06 1003.07 1001.50 1000.76 1000.85 1001.25 1001.09 1001.39 1002.08 1002.43 1003.07 1003.79 1004.53 1005.50 1006.34 1007.30 1008.36 1009.23 1009.98 1010.70 1011.50 1011.98 1012.33 1013.00 1013.88 1014.60 1015.22 1015.56 1015.19 1015.09 1015.42
1000.72 1001.39 1000.00 999.93 999.65 999.62 1000.11 1000.87 1002.71 1004.38 1005.72 1006.71 1006.31 1004.72 1001.59 1000.69 1000.35 1000.31 999.87 999.76 1000.26 1000.64 1001.42 1002.04 1002.96 1003.78 1004.57 1005.59 1006.82 1007.78 1008.89 1009.85 1010.70 1011.26 1011.79 1012.09 1012.72 1013.58 1014.24 1014.71 1015.29 1015.37 1015.25 1015.34
999.30 1000.18 1000.58 999.79 998.61 998.31 998.65 999.68 1001.26 1004.04 1005.47 1005.59 1004.89 1002.98 1000.31 1000.00 999.65 999.93 999.30 999.10 998.70 999.54 1000.17 1000.93 1001.81 1003.08 1004.23 1005.35 1006.45 1007.42 1008.40 1009.30 1010.13 1010.66 1011.27 1011.67 1012.33 1013.17 1013.77 1014.18 1014.59 1015.29 1015.24 1015.20
999.00 999.89 1000.49 999.66 998.99 998.57 998.79 999.20 1000.25 1001.98 1003.45 1004.30 1004.25 1002.19 999.94 999.59 999.30 998.64 998.75 998.60 998.19 998.95 999.61 1000.41 1001.47 1002.45 1003.60 1004.80 1005.99 1007.02 1007.88 1008.62 1009.56 1010.25 1010.95 1011.47 1012.16 1012.78 1013.47 1013.85 1014.08 1014.99 1015.02 1015.00
998.22 998.93 999.53 999.49 998.95 998.37 998.45 998.84 999.61 1000.69 1002.93 1002.74 1002.33 1001.16 1000.03 999.28 998.78 998.35 998.43 998.29 998.02 998.31 999.34 1000.05 1001.16 1002.05 1003.02 1004.18 1005.35 1006.49 1007.46 1008.12 1008.97 1009.89 1010.54 1011.03 1011.47 1011.93 1012.77 1013.30 1013.62 1014.26 1014.72 1015.08
1000.31 999.55 999.02 998.38 998.01 997.89 997.92 998.17 998.58 999.54 999.90 1001.05 1000.30 1000.15 998.89 997.80 997.63 997.52 997.33 997.24 997.42 998.37 999.31 999.92 1000.69 1001.67 1002.75 1004.00 1004.99 1005.84 1006.69 1007.61 1008.43 1009.34 1009.95 1010.25 1010.58 1011.23 1012.11 1012.80 1013.20 1013.78 1014.33 1014.63
1001.21 1000.91 1000.04 998.80 998.10 997.58 997.50 997.21 997.46 997.52 998.08 998.69 998.52 998.34 997.28 996.24 996.50 996.73 997.12 996.84 997.56 998.17 998.77 999.28 1000.14 1001.17 1002.31 1003.22 1004.31 1005.28 1006.18 1006.99 1007.86 1008.58 1009.38 1009.92 1010.36 1010.77 1011.33 1012.14 1012.58 1013.08 1013.70 1014.06
1003.00 1002.64 1001.97 1000.47 998.85 997.93 997.47 996.65 996.57 996.22 996.39 996.75 997.55 996.74 996.28 996.56 996.78 996.88 996.51 996.58 997.01 997.49 998.07 998.81 999.38 1000.17 1001.28 1002.28 1003.23 1004.52 1005.36 1006.20 1007.22 1007.93 1008.72 1009.29 1009.90 1010.48 1010.85 1011.26 1012.00 1012.57 1013.06 1013.44
1002.93 1003.14 1002.68 1001.70 999.85 998.64 996.94 995.89 995.66 995.66 995.17 995.34 995.67 995.72 995.48 995.99 996.19 996.19 996.64 996.28 996.77 997.29 997.65 998.05 998.76 999.64 1000.47 1001.47 1002.44 1003.40 1004.69 1005.70 1006.68 1007.28 1007.83 1008.50 1009.19 1009.91 1010.48 1010.93 1011.25 1011.79 1012.37 1012.81
1002.50 1003.24 1003.39 1002.70 1001.47 999.30 997.34 996.31 996.12 996.15 995.08 994.73 995.03 995.62 995.76 996.24 996.21 997.10 996.64 996.68 996.82 996.92 997.37 997.56 997.89 998.65 999.98 1000.99 1001.98 1003.09 1004.41 1005.35 1006.15 1006.70 1007.18 1007.89 1008.38 1009.08 1009.81 1010.31 1010.59 1011.22 1011.89 1012.48
1002.98 1003.62 1003.98 1003.46 1002.43 1000.45 997.94 996.50 995.55 995.26 995.51 994.89 994.45 995.47 996.06 996.24 997.34 998.02 997.50 997.20 997.10 996.95 997.18 997.59 997.95 998.52 999.28 1000.15 1001.33 1002.62 1003.77 1004.77 1005.49 1005.98 1006.38 1007.03 1007.73 1008.38 1008.97 1009.41 1009.98 1010.54 1011.17 1011.73
1004.53 1004.67 1004.86 1004.26 1002.93 1000.77 998.14 996.98 995.57 995.95 996.58 995.05 994.60 994.76 995.41 996.26 996.77 996.96 997.36 997.25 997.01 997.01 997.11 997.18 997.61 998.18 998.39 999.71 1000.80 1002.09 1003.15 1003.83 1004.03 1004.95 1005.89 1006.63 1007.11 1007.73 1008.23 1008.82 1009.61 1010.11 1010.84 1011.49
1005.23 1005.01 1004.77 1004.01 1002.89 1001.15 998.17 997.45 996.82 996.95 995.96 995.68 995.40 995.29 995.45 995.78 996.29 996.82 997.04 997.28 997.23 996.92 996.88 997.01 997.09 997.75 998.70 999.34 1000.25 1001.45 1002.16 1002.54 1003.88 1004.65 1005.37 1006.15 1006.73 1007.29 1008.02 1008.64 1009.30 1009.90 1010.61 1011.43
1005.47 1005.14 1004.44 1003.27 1002.00 1000.78 999.46 998.11 996.89 996.39 995.76 996.02 995.63 995.44 995.29 995.87 996.32 996.65 996.99 997.17 997.35 997.24 996.92 996.70 996.69 997.43 998.31 999.25 999.66 1000.58 1001.52 1002.57 1003.56 1004.52 1005.25 1005.91 1006.48 1006.93 1007.45 1008.22 1009.00 1009.69 1010.27 1010.96
1006.29 1005.06 1004.55 1003.68 1002.71 1002.14 1000.61 1000.07 998.87 996.41 995.87 995.67 995.67 995.40 995.37 995.75 995.99 996.54 996.72 997.29 997.35 997.53 997.08 996.74 996.85 997.46 998.27 998.91 999.67 1000.31 1001.45 1002.28 1003.26 1004.20 1005.01 1005.66 1006.23 1006.77 1007.18 1007.68 1008.36 1009.01 1009.55 1010.14
1007.14 1006.36 1005.98 1004.29 1003.47 1002.10 1001.29 1001.55 1000.84 998.72 997.32 995.27 995.39 995.22 995.36 995.75 996.12 996.56 997.04 997.38 997.60 997.70 997.51 997.22 997.26 997.86 998.55 999.10 999.98 1000.69 1001.39 1002.15 1003.09 1003.93 1004.68 1005.45 1005.97 1006.47 1006.94 1007.49 1008.27 1008.54 1008.41 1008.78
1007.06 1006.85 1006.60 1005.84 1005.34 1005.31 1004.26 1002.97 1002.26 1000.25 999.28 998.93 996.43 995.53 995.66 995.81 996.20 996.81 997.30 997.61 997.93 998.12 998.11 998.01 998.08 998.35 998.94 999.39 1000.06 1000.71 1001.25 1001.92 1002.84 1003.92 1004.67 1005.30 1005.80 1006.30 1006.76 1007.75 1008.72 1009.04 1008.92 1009.01
Thickness
5844 5821 5804 5815 5830 5837 5826 5815 5809 5810 5811 5801 5798 5802 5809 5812 5804 5820 5822 5815 5820 5828 5833 5829 5824 5820 5814 5809 5807 5803 5797 5796 5792 5786 5783 5780 5781 5781 5780 5779 5777 5776 5774 5773
5821 5809 5834 5839 5842 5835 5826 5813 5807 5813 5804 5801 5803 5810 5823 5817 5809 5817 5820 5825 5825 5830 5831 5834 5833 5826 5816 5811 5809 5803 5801 5796 5793 5791 5787 5785 5783 5780 5777 5777 5780 5777 5773 5773
5809 5837 5844 5839 5836 5819 5823 5816 5801 5804 5800 5798 5790 5788 5807 5823 5815 5813 5824 5830 5838 5833 5829 5829 5831 5829 5822 5815 5812 5808 5805 5801 5798 5794 5787 5782 5781 5776 5773 5775 5775 5773 5771 5769
5816 5847 5835 5832 5823 5822 5795 5835 5822 5813 5792 5771 5797 5749 5788 5808 5812 5816 5826 5830 5838 5842 5841 5840 5834 5830 5826 5822 5820 5814 5808 5805 5802 5797 5790 5783 5777 5771 5772 5775 5776 5773 5768 5769
5815 5832 5825 5814 5832 5835 5826 5843 5831 5822 5813 5782 5779 5758 5783 5800 5797 5821 5835 5842 5848 5849 5845 5845 5842 5835 5833 5830 5824 5818 5813 5806 5805 5800 5794 5786 5779 5778 5776 5778 5779 5776 5769 5767
5818 5849 5837 5833 5848 5849 5863 5831 5816 5802 5768 5737 5786 5774 5777 5784 5820 5833 5850 5850 5855 5854 5849 5851 5849 5841 5835 5836 5831 5823 5815 5810 5806 5802 5796 5790 5781 5776 5772 5772 5773 5771 5773 5774
5805 5820 5839 5850 5834 5850 5846 5803 5752 5739 5724 5746 5785 5770 5799 5829 5858 5854 5853 5857 5864 5862 5855 5850 5847 5841 5837 5835 5834 5828 5818 5812 5808 5805 5801 5795 5787 5784 5777 5774 5776 5776 5776 5780
5766 5768 5828 5852 5839 5831 5833 5815 5772 5759 5735 5769 5801 5783 5826 5853 5866 5857 5856 5853 5862 5860 5862 5856 5855 5850 5845 5842 5839 5833 5820 5812 5809 5806 5805 5800 5794 5787 5782 5780 5778 5780 5782 5784
5765 5782 5837 5847 5856 5851 5835 5812 5828 5792 5777 5769 5785 5810 5845 5868 5863 5857 5850 5858 5857 5863 5870 5862 5860 5861 5854 5847 5844 5838 5825 5815 5811 5808 5807 5803 5798 5790 5784 5780 5782 5786 5784 5784
5803 5779 5826 5841 5854 5854 5837 5848 5804 5773 5766 5756 5771 5788 5798 5840 5853 5859 5860 5867 5869 5867 5870 5869 5865 5868 5863 5856 5851 5844 5832 5822 5816 5810 5806 5805 5799 5791 5784 5780 5779 5784 5786 5785
5815 5797 5820 5833 5819 5823 5822 5818 5809 5791 5773 5749 5748 5775 5836 5849 5858 5857 5871 5879 5880 5879 5875 5876 5871 5874 5870 5862 5853 5845 5834 5822 5813 5809 5804 5803 5799 5791 5787 5783 5780 5781 5783 5784
5832 5799 5785 5808 5843 5849 5841 5836 5813 5766 5773 5768 5765 5780 5866 5863 5868 5865 5874 5884 5898 5890 5887 5886 5882 5874 5869 5859 5852 5845 5837 5827 5817 5812 5806 5802 5797 5792 5788 5787 5785 5780 5781 5782
5825 5793 5786 5801 5816 5836 5831 5832 5824 5798 5781 5772 5762 5780 5860 5861 5866 5878 5875 5883 5894 5886 5888 5886 5879 5874 5870 5862 5852 5845 5838 5831 5822 5814 5808 5802 5796 5791 5787 5787 5786 5781 5782 5782
5837 5798 5799 5788 5797 5822 5821 5831 5827 5812 5770 5782 5778 5809 5841 5852 5863 5873 5874 5880 5890 5891 5886 5884 5877 5875 5873 5866 5856 5847 5840 5836 5826 5815 5809 5804 5803 5799 5792 5790 5788 5783 5781 5779
5801 5797 5809 5816 5824 5835 5831 5824 5827 5814 5814 5798 5811 5810 5837 5860 5865 5871 5882 5887 5891 5885 5880 5879 5880 5876 5871 5864 5857 5852 5845 5836 5829 5819 5813 5811 5810 5807 5798 5793 5790 5786 5781 5780
5792 5783 5801 5814 5827 5830 5821 5829 5831 5835 5831 5825 5824 5822 5859 5879 5879 5876 5873 5884 5881 5879 5881 5885 5884 5878 5870 5867 5860 5853 5847 5839 5833 5825 5818 5813 5810 5809 5804 5797 5794 5790 5784 5783
5768 5766 5762 5768 5806 5809 5794 5823 5833 5838 5844 5840 5814 5842 5869 5865 5863 5865 5876 5884 5883 5884 5886 5885 5886 5883 5877 5874 5869 5857 5852 5847 5837 5831 5825 5819 5814 5809 5806 5804 5797 5792 5787 5785
5764 5761 5754 5754 5783 5757 5807 5846 5848 5839 5853 5851 5855 5858 5868 5865 5871 5878 5880 5881 5881 5886 5887 5889 5891 5885 5884 5881 5874 5868 5857 5850 5842 5838 5834 5829 5822 5814 5809 5804 5802 5799 5793 5788
5766 5753 5747 5746 5740 5780 5815 5835 5831 5826 5832 5859 5852 5854 5862 5865 5872 5862 5881 5884 5884 5885 5885 5892 5897 5894 5885 5881 5876 5867 5856 5851 5846 5842 5840 5834 5830 5822 5815 5809 5807 5804 5799 5795
5748 5741 5736 5735 5743 5744 5799 5833 5848 5849 5805 5853 5863 5857 5855 5862 5829 5836 5870 5878 5879 5886 5887 5886 5891 5892 5887 5885 5879 5868 5859 5854 5850 5848 5847 5843 5837 5830 5822 5820 5814 5810 5805 5801
5715 5720 5718 5715 5728 5754 5805 5826 5848 5798 5799 5850 5864 5866 5860 5851 5857 5864 5870 5875 5882 5883 5886 5890 5889 5888 5892 5887 5880 5868 5863 5859 5864 5860 5852 5845 5841 5835 5831 5826 5819 5814 5808 5802
5700 5703 5709 5716 5725 5734 5816 5822 5808 5819 5842 5848 5855 5861 5861 5863 5864 5866 5870 5870 5872 5877 5882 5887 5886 5885 5886 5887 5881 5871 5868 5872 5864 5859 5853 5847 5843 5838 5833 5827 5822 5816 5809 5801
5693 5704 5712 5728 5740 5776 5799 5815 5831 5837 5840 5843 5850 5859 5864 5860 5861 5864 5865 5867 5867 5871 5877 5884 5886 5884 5884 5883 5884 5876 5873 5869 5862 5855 5850 5845 5841 5838 5834 5828 5822 5816 5811 5803
5678 5702 5706 5724 5748 5759 5780 5793 5801 5836 5840 5845 5851 5857 5860 5857 5858 5859 5861 5857 5857 5862 5870 5879 5880 5882 5880 5882 5880 5878 5871 5868 5860 5851 5846 5842 5837 5834 5833 5831 5827 5820 5814 5807
5665 5681 5685 5713 5740 5758 5769 5768 5778 5802 5823 5845 5849 5856 5856 5854 5854 5854 5852 5850 5851 5858 5865 5872 5873 5874 5873 5876 5872 5872 5869 5864 5855 5847 5842 5837 5834 5830 5829 5829 5823 5821 5821 5817
5669 5669 5671 5691 5714 5717 5732 5751 5762 5782 5793 5800 5831 5844 5849 5846 5847 5848 5844 5846 5845 5850 5856 5861 5865 5868 5868 5869 5867 5865 5865 5860 5850 5841 5836 5833 5829 5826 5825 5815 5808 5803 5805 5805